User: anonymous   Login
Location: Bergen
(60.3910°N, 5.3250°E)
Time: 17:41:53
(UTC+01:00)
Language:

Cosmos 1943 - Orbit

View from above orbital plane
View from above orbital plane
View from above satellite
View from above satellite

Ground track
Ground track

The orbit data is extracted from the following two-line orbital elements,

1 19119U 88039A   18051.91938185 -.00000220 +00000-0 -88559-4 0  9993
2 19119 071.0039 299.4351 0010161 028.2336 049.3518 14.15110249537013
Epoch (UTC): 20 February 2018 22:03:54
Eccentricity: 0.0010161
inclination: 71.0039°
perigee height: 834 km
apogee height: 849 km
right ascension of ascending node: 299.4351°
argument of perigee: 28.2336°
revolutions per day: 14.15110249
mean anomaly at epoch: 49.3518°
orbit number at epoch: 53701

The dashed part of the orbit path shows where the satellite is in the earth's shadow,  

DLR